SCP
0 0 -0 -0 -0 -0 -0 -0 -0 -0 -0 -0 -0 -0 -0 -0 -0 -0 -0 -0 -0 -0 -0 -0 -0 0 0 0 0 0 -0 -0
0 0 0 -0 -0 -0 -0 -0 -0 -0 -0 -0 -0 -0 -0 -0 -0 -0 -0 -0 -0 -0 -0 -0 0 0 0 0 -0 -0 -0 0
0 0 0 0 -0 -0 -0 -0 -0 -0 -0 -0 -0 -0 -0 -0 0 -0 -0 -0 -0 -0 -0 -0 -0 -0 0 -0 -0 -0 -0 0
0 0 0 0 0 0 0 -0 -0 -0 -0 -0 -0 -0 -0 -0 -0 -0 -0 -0 -0 -0 -0 -0 -0 0 0 0 0 0 0 0
0 0 0 0 0 0 0 0 0 0 -0 -0 0 0 0 0 0 0 0 -0 0 0 0 0 0 0 0 0 0 0 0 0
0 0 0 0 0 0 0 0 0 0 0 -0 0 0 0 0 0 0 0 0 0 0 0 0 0 0 0 0 0 0 0 0
0 0 0 0 0 0 0 0 0 0 0 0 0 0 0 0 0 0 0 0 0 0 0 0 0 0 0 0 0 0 0 0
0 0 0 0 0 0 0 0 0 0 0 0 0 0 0 0 0 0 0 0 0 0 0 0 0 0 0 0 0 0 0 0
0 0 0 0 0 0 0 0 0 0 0 0 0 0 0 0 0 0 0 0 0 0 0 0 0 0 0 0 0 0 0 0
0 0 0 0 0 0 0 0 0 0 0 0 0 0 0 0 0 0 0 0 0 0 0 0 0 0 0 0 0 0 0 0
0 0 0 0 0 0 0 0 0 0 0 0 0 0 0 0 0 0 0 0 0 0 0 0 0 0 0 0 0 0 0 0
0 0 0 0 0 0 0 0 0 0 0 0 0 0 0 0 0 0 0 0 0 0 0 0 0 0 0 0 0 0 0 0
0 0 0 0 0 0 0 0 0 0 0 0 0 0 0 0 0 0 0 0 0 0 0 0 0 0 0 -0 -0 0 0 0
0 0 0 0 0 0 0 0 0 0 0 0 0 0 0 0 0 0 0 0 0 0 0 0 0 0 0 0 -0 -0 0 0
0 0 0 0 0 0 0 0 0 0 0 0 0 0 0 0 0 0 0 0 0 0 0 0 0 0 0 0 0 0 0 0
1 1 0 0 0 0 0 0 0 0 0 0 0 0 0 0 0 0 0 0 0 0 0 0 0 0 0 0 0 0 0 0
1 1 1 0 0 0 0 0 0 0 0 0 0 0 0 0 0 0 0 0 0 0 0 0 0 0 0 0 0 0 0 0
0 1 1 1 0 0 0 0 0 0 0 0 0 0 0 0 0 0 0 0 0 0 0 0 0 0 0 0 0 0 0 0
0 0 1 2 2 0 0 0 0 1 0 1 1 1 1 1 0 0 0 0 0 0 0 0 0 0 0 0 0 0 0 0
0 0 1 2 2 2 1 1 1 1 2 2 1 1 1 1 1 1 1 1 1 1 1 1 1 0 0 0 1 0 0 0
Wind_Speed_500mb
80 77 69 62 58 55 52 51 50 49 48 46 44 41 39 37 37 37 35 35 36 37 37 36 33 29 25 22 19 15 15 16
81 79 73 66 60 55 52 50 49 48 47 45 43 41 39 37 36 37 36 35 36 38 39 38 36 30 24 20 16 11 8 18
84 82 77 70 63 58 54 50 49 49 48 46 44 42 40 38 36 36 36 35 35 38 39 39 39 33 26 22 16 10 10 14
89 85 81 74 68 63 59 56 53 52 51 50 46 43 40 38 37 36 36 36 36 37 40 40 40 36 30 25 22 16 11 12
94 89 84 80 75 69 65 61 58 55 53 51 48 46 43 41 40 40 39 39 39 39 40 42 41 38 34 31 31 25 22 18
94 90 87 83 78 74 71 68 65 63 60 56 54 51 48 45 43 40 39 38 39 39 39 40 40 40 38 36 35 35 32 31
95 92 90 87 83 80 77 73 71 67 63 60 57 54 50 48 44 41 39 37 37 36 37 38 39 40 40 40 40 40 39 36
94 94 93 91 89 87 83 79 75 71 67 62 60 57 53 50 46 44 41 38 35 35 34 34 35 38 39 40 40 40 35 34
95 94 92 92 90 88 86 82 78 74 70 65 62 60 56 53 49 47 43 40 39 39 38 38 39 39 39 39 39 41 41 38
94 91 89 89 88 86 85 81 77 74 71 69 66 63 60 57 55 51 46 44 44 43 42 43 43 42 41 40 41 41 43 40
89 91 89 86 86 82 79 75 75 75 74 73 70 67 64 62 59 55 51 49 49 48 48 48 48 46 45 43 43 44 45 45
81 90 93 89 87 82 80 79 80 79 79 77 72 71 69 66 63 60 57 56 54 54 53 50 47 45 47 47 46 47 47 48
81 87 89 94 97 95 92 91 89 87 86 82 77 76 74 71 69 67 65 64 61 58 56 56 55 47 47 50 51 51 53 54
82 87 88 91 95 94 96 95 95 91 88 86 83 82 79 77 77 75 71 69 71 69 66 64 62 56 53 50 51 53 61 60
72 84 93 94 94 95 99 100 98 99 99 96 94 91 88 86 85 80 77 76 78 77 75 72 68 62 60 52 20 31 31 33
72 72 74 86 99 102 100 100 99 97 100 102 101 99 96 93 92 87 82 82 85 84 80 78 74 73 66 70 70 63 32 25
61 65 67 76 84 101 106 106 103 99 96 102 107 106 100 99 96 92 89 86 84 85 82 80 78 77 78 77 74 76 81 83
66 67 71 80 87 91 96 101 106 108 106 98 96 104 107 102 96 92 90 89 86 80 77 78 76 77 80 82 82 81 83 82
58 67 73 70 76 93 98 100 102 110 112 105 98 95 89 94 99 95 90 89 88 87 85 84 82 81 80 82 81 84 86 84
44 57 69 73 78 84 90 96 101 103 102 102 98 91 80 80 84 91 87 83 86 89 91 91 92 90 86 87 87 79 77 71
Wind_Direction_500mb
179 177 181 180 177 175 172 171 170 171 171 171 170 169 168 165 162 160 161 163 164 165 166 164 162 158 155 153 146 137 144 140
183 181 183 183 181 180 177 176 175 175 175 175 174 173 171 169 166 165 165 167 169 171 173 174 174 175 173 174 164 146 151 176
187 185 186 187 186 184 183 182 181 181 181 181 181 179 177 176 173 171 171 173 174 177 181 184 185 188 191 192 193 188 174 171
191 190 188 189 189 189 188 188 187 188 188 188 188 186 185 182 181 179 178 180 182 183 187 191 196 199 202 207 214 223 216 202
193 193 192 192 193 194 194 194 194 194 195 195 193 192 192 191 190 189 188 188 189 191 193 198 204 212 218 218 221 231 238 242
195 196 197 196 197 198 199 199 199 200 199 200 200 199 198 199 199 198 198 197 198 199 201 204 209 216 225 233 234 237 242 245
198 199 201 200 200 203 204 204 205 205 205 205 205 206 206 205 205 206 207 207 207 207 208 210 214 219 224 232 238 241 245 246
203 203 204 204 205 207 208 209 209 210 210 210 211 211 211 212 212 213 213 214 216 217 218 219 221 224 226 229 236 241 245 248
208 208 208 209 211 212 212 213 214 214 214 214 216 216 215 217 217 219 219 219 219 221 223 224 226 229 232 234 235 237 245 249
215 214 214 214 217 218 219 218 219 219 218 218 219 221 221 220 221 222 222 223 225 227 228 231 232 235 238 240 244 244 242 246
222 221 221 220 220 221 224 225 224 224 224 222 223 223 224 225 225 225 224 225 228 231 233 236 237 238 242 244 245 247 246 248
230 224 225 223 224 223 224 225 227 227 227 227 226 227 227 227 230 229 228 228 229 232 235 237 241 243 246 248 247 247 246 247
228 228 226 224 223 221 222 225 225 227 228 228 228 230 231 230 232 233 233 232 233 235 238 238 240 240 243 247 248 249 249 248
231 230 231 229 228 228 228 229 228 231 231 231 230 230 232 234 234 236 235 237 238 236 237 239 240 238 242 250 261 260 256 254
235 233 231 233 232 230 230 231 232 231 231 232 231 232 232 233 236 237 240 240 243 244 241 241 243 242 241 239 237 243 268 266
235 236 235 237 235 234 234 234 235 236 237 237 234 232 234 235 237 239 241 245 246 246 248 247 246 248 246 244 244 250 258 278
241 238 239 241 239 238 239 238 241 243 242 239 238 238 236 237 237 239 240 243 246 246 247 246 248 251 252 254 254 255 257 257
242 245 247 244 240 239 240 243 243 243 243 245 244 242 238 237 240 240 239 241 245 247 249 251 250 251 254 256 254 254 256 259
243 237 237 242 243 239 239 241 242 244 244 245 244 244 243 241 240 242 241 240 246 250 251 252 251 251 254 257 262 263 262 262
233 228 232 237 240 242 241 241 242 242 244 247 248 249 251 250 245 245 248 251 251 254 258 260 262 260 259 264 259 268 273 273
Wind_Speed_850mb
80 77 69 62 58 55 52 51 50 49 48 46 44 41 39 37 37 37 35 35 36 37 37 36 33 29 25 22 19 15 15 16
81 79 73 66 60 55 52 50 49 48 47 45 43 41 39 37 36 37 36 35 36 38 39 38 36 30 24 20 16 11 8 18
84 82 77 70 63 58 54 50 49 49 48 46 44 42 40 38 36 36 36 35 35 38 39 39 39 33 26 22 16 10 10 14
89 85 81 74 68 63 59 56 53 52 51 50 46 43 40 38 37 36 36 36 36 37 40 40 40 36 30 25 22 16 11 12
94 89 84 80 75 69 65 61 58 55 53 51 48 46 43 41 40 40 39 39 39 39 40 42 41 38 34 31 31 25 22 18
94 90 87 83 78 74 71 68 65 63 60 56 54 51 48 45 43 40 39 38 39 39 39 40 40 40 38 36 35 35 32 31
95 92 90 87 83 80 77 73 71 67 63 60 57 54 50 48 44 41 39 37 37 36 37 38 39 40 40 40 40 40 39 36
94 94 93 91 89 87 83 79 75 71 67 62 60 57 53 50 46 44 41 38 35 35 34 34 35 38 39 40 40 40 35 34
95 94 92 92 90 88 86 82 78 74 70 65 62 60 56 53 49 47 43 40 39 39 38 38 39 39 39 39 39 41 41 38
94 91 89 89 88 86 85 81 77 74 71 69 66 63 60 57 55 51 46 44 44 43 42 43 43 42 41 40 41 41 43 40
89 91 89 86 86 82 79 75 75 75 74 73 70 67 64 62 59 55 51 49 49 48 48 48 48 46 45 43 43 44 45 45
81 90 93 89 87 82 80 79 80 79 79 77 72 71 69 66 63 60 57 56 54 54 53 50 47 45 47 47 46 47 47 48
81 87 89 94 97 95 92 91 89 87 86 82 77 76 74 71 69 67 65 64 61 58 56 56 55 47 47 50 51 51 53 54
82 87 88 91 95 94 96 95 95 91 88 86 83 82 79 77 77 75 71 69 71 69 66 64 62 56 53 50 51 53 61 60
72 84 93 94 94 95 99 100 98 99 99 96 94 91 88 86 85 80 77 76 78 77 75 72 68 62 60 52 20 31 31 33
72 72 74 86 99 102 100 100 99 97 100 102 101 99 96 93 92 87 82 82 85 84 80 78 74 73 66 70 70 63 32 25
61 65 67 76 84 101 106 106 103 99 96 102 107 106 100 99 96 92 89 86 84 85 82 80 78 77 78 77 74 76 81 83
66 67 71 80 87 91 96 101 106 108 106 98 96 104 107 102 96 92 90 89 86 80 77 78 76 77 80 82 82 81 83 82
58 67 73 70 76 93 98 100 102 110 112 105 98 95 89 94 99 95 90 89 88 87 85 84 82 81 80 82 81 84 86 84
44 57 69 73 78 84 90 96 101 103 102 102 98 91 80 80 84 91 87 83 86 89 91 91 92 90 86 87 87 79 77 71
Wind_Direction_850mb
179 177 181 180 177 175 172 171 170 171 171 171 170 169 168 165 162 160 161 163 164 165 166 164 162 158 155 153 146 137 144 140
183 181 183 183 181 180 177 176 175 175 175 175 174 173 171 169 166 165 165 167 169 171 173 174 174 175 173 174 164 146 151 176
187 185 186 187 186 184 183 182 181 181 181 181 181 179 177 176 173 171 171 173 174 177 181 184 185 188 191 192 193 188 174 171
191 190 188 189 189 189 188 188 187 188 188 188 188 186 185 182 181 179 178 180 182 183 187 191 196 199 202 207 214 223 216 202
193 193 192 192 193 194 194 194 194 194 195 195 193 192 192 191 190 189 188 188 189 191 193 198 204 212 218 218 221 231 238 242
195 196 197 196 197 198 199 199 199 200 199 200 200 199 198 199 199 198 198 197 198 199 201 204 209 216 225 233 234 237 242 245
198 199 201 200 200 203 204 204 205 205 205 205 205 206 206 205 205 206 207 207 207 207 208 210 214 219 224 232 238 241 245 246
203 203 204 204 205 207 208 209 209 210 210 210 211 211 211 212 212 213 213 214 216 217 218 219 221 224 226 229 236 241 245 248
208 208 208 209 211 212 212 213 214 214 214 214 216 216 215 217 217 219 219 219 219 221 223 224 226 229 232 234 235 237 245 249
215 214 214 214 217 218 219 218 219 219 218 218 219 221 221 220 221 222 222 223 225 227 228 231 232 235 238 240 244 244 242 246
222 221 221 220 220 221 224 225 224 224 224 222 223 223 224 225 225 225 224 225 228 231 233 236 237 238 242 244 245 247 246 248
230 224 225 223 224 223 224 225 227 227 227 227 226 227 227 227 230 229 228 228 229 232 235 237 241 243 246 248 247 247 246 247
228 228 226 224 223 221 222 225 225 227 228 228 228 230 231 230 232 233 233 232 233 235 238 238 240 240 243 247 248 249 249 248
231 230 231 229 228 228 228 229 228 231 231 231 230 230 232 234 234 236 235 237 238 236 237 239 240 238 242 250 261 260 256 254
235 233 231 233 232 230 230 231 232 231 231 232 231 232 232 233 236 237 240 240 243 244 241 241 243 242 241 239 237 243 268 266
235 236 235 237 235 234 234 234 235 236 237 237 234 232 234 235 237 239 241 245 246 246 248 247 246 248 246 244 244 250 258 278
241 238 239 241 239 238 239 238 241 243 242 239 238 238 236 237 237 239 240 243 246 246 247 246 248 251 252 254 254 255 257 257
242 245 247 244 240 239 240 243 243 243 243 245 244 242 238 237 240 240 239 241 245 247 249 251 250 251 254 256 254 254 256 259
243 237 237 242 243 239 239 241 242 244 244 245 244 244 243 241 240 242 241 240 246 250 251 252 251 251 254 257 262 263 262 262
233 228 232 237 240 242 241 241 242 242 244 247 248 249 251 250 245 245 248 251 251 254 258 260 262 260 259 264 259 268 273 273